UFO 8 (USA 138)

Last updated on Sept. 17, 2019, 4:08 a.m. UTC

1 25258U 98016A   19259.30360741 -.00000026  00000-0  00000+0 0  9994
2 25258   8.3853  33.8907 0002460 138.3210 103.7138  1.00269170 78847
UTC
Height (km)
Latitude
Longitude
Inclination
Orbital Period
UTC large
Height (km)
Speed (km/s)
/
Latitude / Longitude
Inclination (degrees)
Orbital Period (minutes)
Azimuth
Elevation
Range (km)
Doppler Factor
iOS Compass Heading
iOS Angle

Next 30 passes for location: Hong Kong

Rise time Rise Azimuth (degrees) Set time Set Azimuth (degrees) Duration Max altitude (degrees)

No matching passes for this satellites